EW4496 Weather Reports


time (UTC)temp
F
wind
direction
speed
knots
gust
knots
rain 1hr
in
rain 24hr
in
rain mn
in
humidity
%
barometer
mb
20260902113047 57 178 0.0 1.7 0.00 0.00 0.00 81 1015.7
20260902111549 57 186 0.0 0.9 0.00 0.00 0.00 81 1015.6
20260902110047 57 207 0.0 2.6 0.00 0.00 0.00 81 1015.7
20260902104552 57 218 0.0 0.0 0.00 0.00 0.00 81 1015.8
20260902103044 58 218 0.0 0.0 0.00 0.00 0.00 81 1015.9
20260902101544 58 218 0.0 0.9 0.00 0.00 0.00 80 1016.0
20260902094544 58 220 0.0 0.9 0.00 0.00 0.00 80 1016.1
20260902093047 58 219 0.0 3.5 0.00 0.00 0.00 79 1016.1
20260902091559 58 245 0.0 1.7 0.00 0.00 0.00 80 1016.0
20260902090059 58 211 0.0 1.7 0.00 0.00 0.00 80 1015.9
20260902084610 59 262 0.0 3.5 0.00 0.00 0.00 80 1016.0
20260902083113 59 217 0.9 2.6 0.00 0.00 0.00 80 1016.0
20260902081513 59 247 0.9 4.3 0.00 0.00 0.00 81 1015.9
20260902080013 59 216 0.0 2.6 0.00 0.00 0.00 80 1015.8
20260902074513 59 233 0.9 2.6 0.00 0.00 0.00 80 1015.8
20260902073013 59 233 0.9 2.6 0.00 0.00 0.00 79 1015.8
20260902071528 60 274 0.9 3.5 0.00 0.00 0.00 79 1015.7
20260902070028 60 201 0.9 4.3 0.00 0.00 0.00 79 1015.8
20260902064530 60 216 0.9 3.5 0.00 0.00 0.00 80 1015.7
20260902063028 60 217 0.0 3.5 0.00 0.00 0.00 79 1015.9
20260902061539 60 205 0.0 1.7 0.00 0.00 0.00 79 1015.9
20260902060043 60 229 0.0 1.7 0.00 0.00 0.00 79 1015.9
20260902054549 61 250 0.0 1.7 0.00 0.00 0.00 78 1016.0
20260902053042 61 269 0.0 4.3 0.00 0.00 0.00 76 1015.8
20260902051535 62 255 0.0 4.3 0.00 0.00 0.00 73 1015.8
20260902050035 63 5 0.0 4.3 0.00 0.00 0.00 72 1015.8
20260902044552 63 342 1.7 9.6 0.00 0.00 0.00 70 1015.6
20260902043051 64 333 1.7 6.1 0.00 0.00 0.00 68 1015.5
20260902041550 64 326 1.7 10.4 0.00 0.00 0.00 66 1015.4
20260902040050 65 319 2.6 10.4 0.00 0.00 0.00 64 1015.1
20260902034551 66 311 1.7 8.7 0.00 0.00 0.00 63 1014.8
20260902033050 66 329 1.7 7.0 0.00 0.00 0.00 62 1014.6
20260902031549 66 319 2.6 8.7 0.00 0.00 0.00 61 1014.3
20260902030050 67 359 4.3 8.7 0.00 0.00 0.00 59 1014.1
20260902024550 68 349 3.5 9.6 0.00 0.00 0.00 57 1014.0
20260902023053 68 323 2.6 10.4 0.00 0.00 0.00 55 1013.8
20260902021549 69 345 1.7 7.0 0.00 0.00 0.00 54 1013.7
20260902020049 70 37 1.7 9.6 0.00 0.00 0.00 51 1013.5
20260902014550 72 8 0.9 11.3 0.00 0.00 0.00 47 1013.4
20260902013049 74 308 0.9 9.6 0.00 0.00 0.00 45 1013.3
20260902011553 75 341 1.7 8.7 0.00 0.00 0.00 43 1013.3
20260902004549 76 305 0.9 7.8 0.00 0.00 0.00 41 1013.1
20260902003048 77 311 1.7 7.8 0.00 0.00 0.00 40 1013.3
20260902001548 77 279 0.0 7.8 0.00 0.00 0.00 40 1013.2
20260902000051 77 310 1.7 6.1 0.00 0.00 0.00 39 1013.3
20260901234549 77 353 1.7 7.0 0.00 0.00 0.00 39 1013.3
20260901233100 78 345 0.9 6.1 0.00 0.00 0.00 38 1013.4
20260901231603 77 25 0.0 8.7 0.00 0.00 0.00 40 1013.5
20260901230104 77 311 0.9 9.6 0.00 0.00 0.00 40 1013.6
20260901224616 78 290 0.9 8.7 0.00 0.00 0.00 39 1013.8
20260901223103 77 299 0.9 8.7 0.00 0.00 0.00 40 1013.8
20260901221604 78 328 0.0 7.8 0.00 0.00 0.00 40 1014.1
20260901220004 77 298 1.7 6.1 0.00 0.00 0.00 40 1014.1
20260901214506 77 227 2.6 8.7 0.00 0.00 0.00 41 1014.3
20260901213002 76 321 0.0 7.0 0.00 0.00 0.00 44 1014.2
20260901211519 76 217 0.0 8.7 0.00 0.00 0.00 44 1014.3
20260901210017 76 263 1.7 10.4 0.00 0.00 0.00 44 1014.5
20260901204517 74 314 0.9 7.8 0.00 0.00 0.00 47 1014.6
20260901203017 74 337 0.0 6.1 0.00 0.00 0.00 48 1014.7
20260901201517 75 345 0.0 7.8 0.00 0.00 0.00 47 1014.8
20260901200018 74 352 0.9 6.1 0.00 0.00 0.00 48 1014.9
20260901194516 73 231 0.0 5.2 0.00 0.00 0.00 51 1015.1
20260901193017 72 348 0.9 6.1 0.00 0.00 0.00 52 1015.2
20260901191539 72 330 0.9 11.3 0.00 0.00 0.00 52 1015.3
20260901190043 71 6 1.7 7.8 0.00 0.00 0.00 54 1015.4
20260901184532 71 334 1.7 7.0 0.00 0.00 0.00 55 1015.6
20260901183055 70 295 0.0 6.1 0.00 0.00 0.00 55 1015.6
20260901181546 69 315 0.9 7.8 0.00 0.00 0.00 58 1015.5
20260901180046 69 345 2.6 7.8 0.00 0.00 0.00 57 1015.5
20260901174546 69 269 3.5 11.3 0.00 0.00 0.00 58 1015.5
20260901173046 69 290 2.6 8.7 0.00 0.00 0.00 60 1015.4
20260901171549 67 17 2.6 12.2 0.00 0.00 0.00 62 1015.4
20260901170046 67 354 2.6 10.4 0.00 0.00 0.00 63 1015.3
20260901164548 67 337 0.9 7.8 0.00 0.00 0.00 64 1015.2
20260901163055 66 333 1.7 13.0 0.00 0.00 0.00 66 1015.2
20260901161546 65 15 2.6 9.6 0.00 0.00 0.00 68 1015.1
20260901160045 64 234 1.7 7.0 0.00 0.00 0.00 69 1014.9
20260901154610 63 264 3.5 7.8 0.00 0.00 0.00 71 1014.8
20260901153049 63 259 1.7 10.4 0.00 0.00 0.00 71 1014.6
20260901151546 62 228 2.6 7.0 0.00 0.00 0.00 74 1014.3
20260901150114 61 179 1.7 7.8 0.00 0.00 0.00 75 1014.3
20260901144600 60 243 1.7 6.1 0.00 0.00 0.00 77 1014.2
20260901143100 59 219 1.7 6.1 0.00 0.00 0.00 79 1014.0
20260901141604 58 279 0.9 4.3 0.00 0.00 0.00 80 1013.7
20260901134600 57 220 1.7 6.1 0.00 0.00 0.00 82 1013.3
20260901133100 57 229 3.5 8.7 0.00 0.00 0.00 82 1013.2
20260901131602 57 230 0.9 5.2 0.00 0.00 0.00 81 1013.1
20260901130005 58 193 2.6 7.0 0.00 0.00 0.00 81 1013.0
20260901124510 58 229 1.7 6.1 0.00 0.00 0.00 80 1012.8
20260901123005 58 222 3.5 8.7 0.00 0.00 0.00 81 1012.8
20260901121506 57 179 1.7 5.2 0.00 0.00 0.00 81 1012.9
20260901120020 57 221 0.9 4.3 0.00 0.00 0.00 80 1012.9
20260901114519 58 236 1.7 5.2 0.00 0.00 0.00 80 1012.6